AMC-3

Last updated on Sat Jul 05 2025 00:02:43 GMT+0000 (Coordinated Universal Time)

1 24936U 97050A 25185.55098897 -.00000253 00000+0 00000+0 0 9996 2 24936 7.2928 68.0271 0002905 32.3753 308.7394 1.00272135 48947
UTC large
Height (km)
Speed (km/s)
/
Latitude / Longitude
Inclination (degrees)
Orbital Period (minutes)
Azimuth
Elevation
Range (km)
Doppler Factor

Next 0 passes for location: London (51.5072 / 0.1276)

Sorry there are no passes over London.